Weather in Ozhogino

Russia / Kurgan Oblast     56°23′42″N   64°31′37″E
temp.,
°C
wind,
m/s
gust,
m/s
humid.,
%
clouds,
%
prec.,
mm/h
press.,
hPa
HPBL,
m
13 june, sun
sun1323:00+14ese007066 0.0 102410
02:00+13s117025 0.0 102410
05:00+13s127118 0.0 102410
08:00+19sw245557 0.0 1024283
11:00+23ssw3444100 0.0 10241254
14:00+24ssw3440100 0.0 10241825
17:00+24sw4543100 0.0 10231720
20:00+20ssw226229 0.0 102336
14 june, mon
mon1423:00+16s236140 0.0 102321
02:00+14ssw33675 0.0 102335
05:00+13s35703 0.0 102472
08:00+19ssw475699 0.0 1024278
11:00+24sw58435 0.0 1023835
14:00+27sw68368 0.0 10211791
17:00+27sw58445 0.0 10211766
20:00+22sw4106481 0.0 1020284
15 june, tue
tue1523:00+19sw411647 0.0 1019203
02:00+17sw41065100 0.0 1019166
05:00+17sw41161100 0.0 1019220
08:00+20wsw4761100 0.0 1018243
11:00+25wsw5751100 0.0 1017676
14:00+28sw6843100 0.0 10161478
17:00+27wsw585098 0.0 10151450
20:00+23wsw39687 0.0 1014251
16 june, wed
wed1623:00+18wnw228140 0.3 101413
02:00+15nw3492100 0.6 101567
05:00+16wnw349196 1.0 101588
08:00+21nw237495 0.0 1016234
11:00+26wsw345464 0.0 1015977
14:00+28w454312 0.0 10141698
17:00+19nne5870100 1.0 1013203
20:00+21wnw3879100 1.6 1014281
17 june, thu
thu1723:00+17ssw5139158 2.3 1013286
02:00+16wsw399065 0.0 1012149
05:00+16wsw38935 0.0 1012168
08:00+22w36721 0.0 1010305
11:00+27wsw45525 0.0 10091048
14:00+29wsw454374 0.0 10081817
17:00+29ssw45443 0.0 10061438
20:00+25w5962100 0.0 1005375